{"data":{"norad_id":58869,"epoch":"2026-09-20T22:20:07.131840Z","epoch_age_seconds":115276,"freshness":"FRESH","line1":"1 58869U 24019S   26263.93063810 -.00000054  00000+0  75737-5 0  9994","line2":"2 58869  43.0024 222.6764 0000841 266.0864  93.9892 15.27575454148980","mean_motion":15.27575454,"eccentricity":8.41e-5,"inclination_deg":43.0024,"raan_deg":222.6764,"arg_perigee_deg":266.0864,"mean_anomaly_deg":93.9892,"bstar":7.5737e-6,"rev_number":14898,"period_min":94.267029247512,"perigee_km":482.48568153735,"apogee_km":483.63973532831,"semimajor_km":6861.1997084328,"source":"CELESTRAK","updated_at":"2026-09-21T09:00:33.990197Z"}}